owner,sensor,date,latitude,longitude,vertical_datum,wind_speed,wind_to_direction,wind_speed_of_gust,qcFlag 
COMPS,ioos:station:USF.COMPS:ARP:1,2019-10-01T00:54:00,28.4330,-82.6670,10.0,3.52,75.47,5.48,'11111222,11111222,11111222' 
COMPS,ioos:station:USF.COMPS:ARP:1,2019-10-01T01:54:00,28.4330,-82.6670,10.0,3.76,78.25,5.58,'11111222,11111222,11111222' 
COMPS,ioos:station:USF.COMPS:ARP:1,2019-10-01T02:54:00,28.4330,-82.6670,10.0,2.58,76.61,3.72,'11111222,11111222,11111222' 
COMPS,ioos:station:USF.COMPS:ARP:1,2019-10-01T03:54:00,28.4330,-82.6670,10.0,2.45,68.91,3.72,'11111222,11111222,11111222' 
COMPS,ioos:station:USF.COMPS:ARP:1,2019-10-01T04:54:00,28.4330,-82.6670,10.0,2.46,64.53,3.62,'11111222,11111222,11111222' 
COMPS,ioos:station:USF.COMPS:ARP:1,2019-10-01T05:54:00,28.4330,-82.6670,10.0,1.59,64.67,2.93,'11111222,11111222,11111222' 
COMPS,ioos:station:USF.COMPS:ARP:1,2019-10-01T06:54:00,28.4330,-82.6670,10.0,2.58,67.9,3.52,'11111222,11111222,11111222' 
COMPS,ioos:station:USF.COMPS:ARP:1,2019-10-01T07:54:00,28.4330,-82.6670,10.0,2.08,65.59,2.93,'11111222,11111222,11111222' 
COMPS,ioos:station:USF.COMPS:ARP:1,2019-10-01T08:54:00,28.4330,-82.6670,10.0,1.94,67.35,2.93,'11111222,11111222,11111222' 
COMPS,ioos:station:USF.COMPS:ARP:1,2019-10-01T09:54:00,28.4330,-82.6670,10.0,2.43,72.94,3.23,'11111222,11111222,11111222' 
COMPS,ioos:station:USF.COMPS:ARP:1,2019-10-01T10:54:00,28.4330,-82.6670,10.0,2.48,69.26,3.13,'11111222,11111222,11111222' 
COMPS,ioos:station:USF.COMPS:ARP:1,2019-10-01T11:54:00,28.4330,-82.6670,10.0,1.66,73.97,2.05,'11111222,11111222,11111222' 
COMPS,ioos:station:USF.COMPS:ARP:1,2019-10-01T12:54:00,28.4330,-82.6670,10.0,2.71,75.44,3.52,'11111222,11111222,11111222' 
COMPS,ioos:station:USF.COMPS:ARP:1,2019-10-01T13:54:00,28.4330,-82.6670,10.0,4.11,75.0,6.66,'11111222,11111222,11111222' 
COMPS,ioos:station:USF.COMPS:ARP:1,2019-10-01T14:54:00,28.4330,-82.6670,10.0,4.54,71.65,6.07,'11111222,11111222,11111222' 
COMPS,ioos:station:USF.COMPS:ARP:1,2019-10-01T15:54:00,28.4330,-82.6670,10.0,3.73,83.01,5.39,'11111222,11111222,11111222' 
COMPS,ioos:station:USF.COMPS:ARP:1,2019-10-01T16:54:00,28.4330,-82.6670,10.0,4.82,83.25,8.13,'11111222,11111222,11111222' 
COMPS,ioos:station:USF.COMPS:ARP:1,2019-10-01T17:54:00,28.4330,-82.6670,10.0,5.76,87.5,7.64,'11111222,11111222,11111222' 
COMPS,ioos:station:USF.COMPS:ARP:1,2019-10-01T18:54:00,28.4330,-82.6670,10.0,4.75,73.88,8.91,'11111222,11111222,11111222' 
COMPS,ioos:station:USF.COMPS:ARP:1,2019-10-01T19:54:00,28.4330,-82.6670,10.0,5.27,91.34,8.72,'11111222,11111222,11111222' 
COMPS,ioos:station:USF.COMPS:ARP:1,2019-10-01T20:54:00,28.4330,-82.6670,10.0,5.3,82.47,8.42,'11111222,11111222,11111222' 
COMPS,ioos:station:USF.COMPS:ARP:1,2019-10-01T21:54:00,28.4330,-82.6670,10.0,4.76,84.92,7.54,'11111222,11111222,11111222' 
COMPS,ioos:station:USF.COMPS:ARP:1,2019-10-01T22:54:00,28.4330,-82.6670,10.0,4.91,83.9,6.95,'11111222,11111222,11111222' 
COMPS,ioos:station:USF.COMPS:ARP:1,2019-10-01T23:54:00,28.4330,-82.6670,10.0,4.64,77.4,7.74,'11111222,11111222,11111222' 
COMPS,ioos:station:USF.COMPS:ARP:1,2019-10-02T00:54:00,28.4330,-82.6670,10.0,3.91,81.08,5.58,'11111222,11111222,11111222' 
COMPS,ioos:station:USF.COMPS:ARP:1,2019-10-02T01:54:00,28.4330,-82.6670,10.0,3.18,80.07,4.21,'11111222,11111222,11111222' 
COMPS,ioos:station:USF.COMPS:ARP:1,2019-10-02T02:54:00,28.4330,-82.6670,10.0,2.13,83.56,2.93,'11111222,11111222,11111222' 
COMPS,ioos:station:USF.COMPS:ARP:1,2019-10-02T03:54:00,28.4330,-82.6670,10.0,2.07,68.67,2.84,'11111222,11111222,11111222' 
COMPS,ioos:station:USF.COMPS:ARP:1,2019-10-02T04:54:00,28.4330,-82.6670,10.0,1.69,71.42,2.15,'11111222,11111222,11111222' 
COMPS,ioos:station:USF.COMPS:ARP:1,2019-10-02T05:54:00,28.4330,-82.6670,10.0,1.76,67.75,2.45,'11111222,11111222,11111222' 
COMPS,ioos:station:USF.COMPS:ARP:1,2019-10-02T06:54:00,28.4330,-82.6670,10.0,1.45,76.12,2.05,'11111222,11111222,11111222' 
COMPS,ioos:station:USF.COMPS:ARP:1,2019-10-02T07:54:00,28.4330,-82.6670,10.0,1.32,73.65,2.05,'11111222,11111222,11111222' 
COMPS,ioos:station:USF.COMPS:ARP:1,2019-10-02T08:54:00,28.4330,-82.6670,10.0,1.44,80.85,1.86,'11111222,11111222,11111222' 
COMPS,ioos:station:USF.COMPS:ARP:1,2019-10-02T09:54:00,28.4330,-82.6670,10.0,1.44,74.14,1.86,'11111222,11111222,11111222' 
COMPS,ioos:station:USF.COMPS:ARP:1,2019-10-02T10:54:00,28.4330,-82.6670,10.0,1.16,78.18,1.66,'11111222,11111222,11111222' 
COMPS,ioos:station:USF.COMPS:ARP:1,2019-10-02T11:54:00,28.4330,-82.6670,10.0,2.61,70.39,3.72,'11111222,11111222,11111222' 
COMPS,ioos:station:USF.COMPS:ARP:1,2019-10-02T12:54:00,28.4330,-82.6670,10.0,3.02,73.85,4.11,'11111222,11111222,11111222' 
COMPS,ioos:station:USF.COMPS:ARP:1,2019-10-02T13:54:00,28.4330,-82.6670,10.0,3.73,79.42,6.76,'11111222,11111222,11111222' 
COMPS,ioos:station:USF.COMPS:ARP:1,2019-10-02T14:54:00,28.4330,-82.6670,10.0,5.58,75.71,8.23,'11111222,11111222,11111222' 
COMPS,ioos:station:USF.COMPS:ARP:1,2019-10-02T15:54:00,28.4330,-82.6670,10.0,5.37,77.62,7.83,'11111222,11111222,11111222' 
COMPS,ioos:station:USF.COMPS:ARP:1,2019-10-02T16:54:00,28.4330,-82.6670,10.0,4.26,81.86,8.52,'11111222,11111222,11111222' 
COMPS,ioos:station:USF.COMPS:ARP:1,2019-10-02T17:54:00,28.4330,-82.6670,10.0,4.5,92.1,7.15,'11111222,11111222,11111222' 
COMPS,ioos:station:USF.COMPS:ARP:1,2019-10-02T18:54:00,28.4330,-82.6670,10.0,4.18,92.58,5.87,'11111222,11111222,11111222' 
COMPS,ioos:station:USF.COMPS:ARP:1,2019-10-02T19:54:00,28.4330,-82.6670,10.0,5.07,76.76,7.64,'11111222,11111222,11111222' 
COMPS,ioos:station:USF.COMPS:ARP:1,2019-10-02T20:54:00,28.4330,-82.6670,10.0,4.05,93.15,5.58,'11111222,11111222,11111222' 
COMPS,ioos:station:USF.COMPS:ARP:1,2019-10-02T21:54:00,28.4330,-82.6670,10.0,4.21,90.21,7.44,'11111222,11111222,11111222' 
COMPS,ioos:station:USF.COMPS:ARP:1,2019-10-02T22:54:00,28.4330,-82.6670,10.0,3.85,91.99,5.68,'11111222,11111222,11111222' 
COMPS,ioos:station:USF.COMPS:ARP:1,2019-10-02T23:54:00,28.4330,-82.6670,10.0,2.12,90.4,3.13,'11111222,11111222,11111222' 
COMPS,ioos:station:USF.COMPS:ARP:1,2019-10-03T00:54:00,28.4330,-82.6670,10.0,2.76,90.42,4.7,'11111222,11111222,11111222' 
COMPS,ioos:station:USF.COMPS:ARP:1,2019-10-03T01:54:00,28.4330,-82.6670,10.0,2.68,83.9,4.5,'11111222,11111222,11111222' 
COMPS,ioos:station:USF.COMPS:ARP:1,2019-10-03T02:54:00,28.4330,-82.6670,10.0,2.13,103.35,3.42,'11111222,11111222,11111222' 
COMPS,ioos:station:USF.COMPS:ARP:1,2019-10-03T03:54:00,28.4330,-82.6670,10.0,1.47,93.13,2.45,'11111222,11111222,11111222' 
COMPS,ioos:station:USF.COMPS:ARP:1,2019-10-03T04:54:00,28.4330,-82.6670,10.0,1.49,97.8,2.25,'11111222,11111222,11111222' 
COMPS,ioos:station:USF.COMPS:ARP:1,2019-10-03T05:54:00,28.4330,-82.6670,10.0,1.62,93.81,2.54,'11111222,11111222,11111222' 
COMPS,ioos:station:USF.COMPS:ARP:1,2019-10-03T06:54:00,28.4330,-82.6670,10.0,1.69,99.52,2.54,'11111222,11111222,11111222' 
COMPS,ioos:station:USF.COMPS:ARP:1,2019-10-03T07:54:00,28.4330,-82.6670,10.0,1.42,101.55,2.05,'11111222,11111222,11111222' 
COMPS,ioos:station:USF.COMPS:ARP:1,2019-10-03T08:54:00,28.4330,-82.6670,10.0,2.19,80.25,2.74,'11111222,11111222,11111222' 
COMPS,ioos:station:USF.COMPS:ARP:1,2019-10-03T09:54:00,28.4330,-82.6670,10.0,1.65,82.05,2.15,'11111222,11111222,11111222' 
COMPS,ioos:station:USF.COMPS:ARP:1,2019-10-03T10:54:00,28.4330,-82.6670,10.0,1.93,81.53,2.74,'11111222,11111222,11111222' 
COMPS,ioos:station:USF.COMPS:ARP:1,2019-10-03T11:54:00,28.4330,-82.6670,10.0,1.95,80.99,3.03,'11111222,11111222,11111222' 
COMPS,ioos:station:USF.COMPS:ARP:1,2019-10-03T12:54:00,28.4330,-82.6670,10.0,2.03,77.98,3.03,'11111222,11111222,11111222' 
COMPS,ioos:station:USF.COMPS:ARP:1,2019-10-03T13:54:00,28.4330,-82.6670,10.0,3.81,75.94,5.39,'11111222,11111222,11111222' 
COMPS,ioos:station:USF.COMPS:ARP:1,2019-10-03T14:54:00,28.4330,-82.6670,10.0,3.51,72.44,5.97,'11111222,11111222,11111222' 
COMPS,ioos:station:USF.COMPS:ARP:1,2019-10-03T15:54:00,28.4330,-82.6670,10.0,3.24,68.98,4.9,'11111222,11111222,11111222' 
COMPS,ioos:station:USF.COMPS:ARP:1,2019-10-03T16:54:00,28.4330,-82.6670,10.0,2.99,72.63,4.31,'11111222,11111222,11111222' 
COMPS,ioos:station:USF.COMPS:ARP:1,2019-10-03T17:54:00,28.4330,-82.6670,10.0,3.21,89.5,4.9,'11111222,11111222,11111222' 
COMPS,ioos:station:USF.COMPS:ARP:1,2019-10-03T18:54:00,28.4330,-82.6670,10.0,3.36,76.1,5.19,'11111222,11111222,11111222' 
COMPS,ioos:station:USF.COMPS:ARP:1,2019-10-03T19:54:00,28.4330,-82.6670,10.0,3.33,74.1,7.05,'11111222,11111222,11111222' 
COMPS,ioos:station:USF.COMPS:ARP:1,2019-10-03T20:54:00,28.4330,-82.6670,10.0,3.38,95.4,4.8,'11111222,11111222,11111222' 
COMPS,ioos:station:USF.COMPS:ARP:1,2019-10-03T21:54:00,28.4330,-82.6670,10.0,2.16,95.81,3.42,'11111222,11111222,11111222' 
COMPS,ioos:station:USF.COMPS:ARP:1,2019-10-03T22:54:00,28.4330,-82.6670,10.0,1.76,103.79,2.54,'11111222,11111222,11111222' 
COMPS,ioos:station:USF.COMPS:ARP:1,2019-10-03T23:54:00,28.4330,-82.6670,10.0,0.38,77.91,0.58,'11111222,11111222,11111222' 
COMPS,ioos:station:USF.COMPS:ARP:1,2019-10-04T00:54:00,28.4330,-82.6670,10.0,1.75,88.93,2.45,'11111222,11111222,11111222' 
COMPS,ioos:station:USF.COMPS:ARP:1,2019-10-04T01:54:00,28.4330,-82.6670,10.0,2.63,101.7,4.11,'11111222,11111222,11111222' 
COMPS,ioos:station:USF.COMPS:ARP:1,2019-10-04T02:54:00,28.4330,-82.6670,10.0,2.6,97.16,3.72,'11111222,11111222,11111222' 
COMPS,ioos:station:USF.COMPS:ARP:1,2019-10-04T03:54:00,28.4330,-82.6670,10.0,2.68,107.55,4.21,'11111222,11111222,11111222' 
COMPS,ioos:station:USF.COMPS:ARP:1,2019-10-04T04:54:00,28.4330,-82.6670,10.0,1.84,107.71,2.93,'11111222,11111222,11111222' 
COMPS,ioos:station:USF.COMPS:ARP:1,2019-10-04T05:54:00,28.4330,-82.6670,10.0,1.32,113.09,1.86,'11111222,11111222,11111222' 
COMPS,ioos:station:USF.COMPS:ARP:1,2019-10-04T06:54:00,28.4330,-82.6670,10.0,1.36,110.96,2.45,'11111222,11111222,11111222' 
COMPS,ioos:station:USF.COMPS:ARP:1,2019-10-04T07:54:00,28.4330,-82.6670,10.0,0.74,113.82,1.66,'11111222,11111222,11111222' 
COMPS,ioos:station:USF.COMPS:ARP:1,2019-10-04T08:54:00,28.4330,-82.6670,10.0,0.06,89.82,0.39,'11111222,11111222,11111222' 
COMPS,ioos:station:USF.COMPS:ARP:1,2019-10-04T09:54:00,28.4330,-82.6670,10.0,0.93,81.81,1.17,'11111222,11111222,11111222' 
COMPS,ioos:station:USF.COMPS:ARP:1,2019-10-04T10:54:00,28.4330,-82.6670,10.0,1.11,84.49,1.46,'11111222,11111222,11111222' 
COMPS,ioos:station:USF.COMPS:ARP:1,2019-10-04T11:54:00,28.4330,-82.6670,10.0,1.36,75.97,2.05,'11111222,11111222,11111222' 
COMPS,ioos:station:USF.COMPS:ARP:1,2019-10-04T12:54:00,28.4330,-82.6670,10.0,2.1,71.1,3.13,'11111222,11111222,11111222' 
COMPS,ioos:station:USF.COMPS:ARP:1,2019-10-04T13:54:00,28.4330,-82.6670,10.0,1.14,67.7,2.25,'11111222,11111222,11111222' 
COMPS,ioos:station:USF.COMPS:ARP:1,2019-10-04T14:54:00,28.4330,-82.6670,10.0,2.0,94.17,3.23,'11111222,11111222,11111222' 
COMPS,ioos:station:USF.COMPS:ARP:1,2019-10-04T15:54:00,28.4330,-82.6670,10.0,2.37,93.81,4.5,'11111222,11111222,11111222' 
COMPS,ioos:station:USF.COMPS:ARP:1,2019-10-04T16:54:00,28.4330,-82.6670,10.0,2.9,69.26,4.41,'11111222,11111222,11111222' 
COMPS,ioos:station:USF.COMPS:ARP:1,2019-10-04T17:54:00,28.4330,-82.6670,10.0,1.65,338.13,4.5,'11111222,11111222,11111222' 
COMPS,ioos:station:USF.COMPS:ARP:1,2019-10-04T18:54:00,28.4330,-82.6670,10.0,3.27,308.32,5.19,'11111222,11111222,11111222' 
COMPS,ioos:station:USF.COMPS:ARP:1,2019-10-04T19:54:00,28.4330,-82.6670,10.0,2.37,324.36,4.11,'11111222,11111222,11111222' 
COMPS,ioos:station:USF.COMPS:ARP:1,2019-10-04T20:54:00,28.4330,-82.6670,10.0,1.87,329.61,4.01,'11111222,11111222,11111222' 
COMPS,ioos:station:USF.COMPS:ARP:1,2019-10-04T21:54:00,28.4330,-82.6670,10.0,1.65,322.71,3.52,'11111222,11111222,11111222' 
COMPS,ioos:station:USF.COMPS:ARP:1,2019-10-04T22:54:00,28.4330,-82.6670,10.0,1.37,339.47,3.62,'11111222,11111222,11111222' 
COMPS,ioos:station:USF.COMPS:ARP:1,2019-10-04T23:54:00,28.4330,-82.6670,10.0,0.8,21.26,1.56,'11111222,11111222,11111222' 
COMPS,ioos:station:USF.COMPS:ARP:1,2019-10-05T00:54:00,28.4330,-82.6670,10.0,0.66,27.47,1.66,'11111222,11111222,11111222' 
COMPS,ioos:station:USF.COMPS:ARP:1,2019-10-05T01:54:00,28.4330,-82.6670,10.0,1.86,88.94,2.74,'11111222,11111222,11111222' 
COMPS,ioos:station:USF.COMPS:ARP:1,2019-10-05T02:54:00,28.4330,-82.6670,10.0,1.16,97.33,1.86,'11111222,11111222,11111222' 
COMPS,ioos:station:USF.COMPS:ARP:1,2019-10-05T03:54:00,28.4330,-82.6670,10.0,1.62,105.7,2.54,'11111222,11111222,11111222' 
COMPS,ioos:station:USF.COMPS:ARP:1,2019-10-05T04:54:00,28.4330,-82.6670,10.0,1.33,103.49,1.95,'11111222,11111222,11111222' 
COMPS,ioos:station:USF.COMPS:ARP:1,2019-10-05T05:54:00,28.4330,-82.6670,10.0,1.49,102.17,2.35,'11111222,11111222,11111222' 
COMPS,ioos:station:USF.COMPS:ARP:1,2019-10-05T06:54:00,28.4330,-82.6670,10.0,1.64,108.57,2.35,'11111222,11111222,11111222' 
COMPS,ioos:station:USF.COMPS:ARP:1,2019-10-05T07:54:00,28.4330,-82.6670,10.0,1.16,97.57,1.95,'11111222,11111222,11111222' 
COMPS,ioos:station:USF.COMPS:ARP:1,2019-10-05T08:54:00,28.4330,-82.6670,10.0,1.06,99.61,1.66,'11111222,11111222,11111222' 
COMPS,ioos:station:USF.COMPS:ARP:1,2019-10-05T09:54:00,28.4330,-82.6670,10.0,1.27,109.31,1.76,'11111222,11111222,11111222' 
COMPS,ioos:station:USF.COMPS:ARP:1,2019-10-05T10:54:00,28.4330,-82.6670,10.0,1.39,103.25,1.95,'11111222,11111222,11111222' 
COMPS,ioos:station:USF.COMPS:ARP:1,2019-10-05T11:54:00,28.4330,-82.6670,10.0,1.81,78.41,2.54,'11111222,11111222,11111222' 
COMPS,ioos:station:USF.COMPS:ARP:1,2019-10-05T12:54:00,28.4330,-82.6670,10.0,2.34,90.57,3.52,'11111222,11111222,11111222' 
COMPS,ioos:station:USF.COMPS:ARP:1,2019-10-05T13:54:00,28.4330,-82.6670,10.0,3.22,92.2,4.8,'11111222,11111222,11111222' 
COMPS,ioos:station:USF.COMPS:ARP:1,2019-10-05T14:54:00,28.4330,-82.6670,10.0,3.75,79.9,5.87,'11111222,11111222,11111222' 
COMPS,ioos:station:USF.COMPS:ARP:1,2019-10-05T15:54:00,28.4330,-82.6670,10.0,3.52,72.63,5.09,'11111222,11111222,11111222' 
COMPS,ioos:station:USF.COMPS:ARP:1,2019-10-05T16:54:00,28.4330,-82.6670,10.0,3.93,67.56,5.58,'11111222,11111222,11111222' 
COMPS,ioos:station:USF.COMPS:ARP:1,2019-10-05T17:54:00,28.4330,-82.6670,10.0,3.99,87.04,5.68,'11111222,11111222,11111222' 
COMPS,ioos:station:USF.COMPS:ARP:1,2019-10-05T18:54:00,28.4330,-82.6670,10.0,3.4,68.03,5.48,'11111222,11111222,11111222' 
COMPS,ioos:station:USF.COMPS:ARP:1,2019-10-05T19:54:00,28.4330,-82.6670,10.0,3.69,87.59,6.37,'11111222,11111222,11111222' 
COMPS,ioos:station:USF.COMPS:ARP:1,2019-10-05T20:54:00,28.4330,-82.6670,10.0,4.73,77.78,6.76,'11111222,11111222,11111222' 
COMPS,ioos:station:USF.COMPS:ARP:1,2019-10-05T21:54:00,28.4330,-82.6670,10.0,3.53,86.81,5.09,'11111222,11111222,11111222' 
COMPS,ioos:station:USF.COMPS:ARP:1,2019-10-05T22:54:00,28.4330,-82.6670,10.0,3.56,83.08,6.07,'11111222,11111222,11111222' 
COMPS,ioos:station:USF.COMPS:ARP:1,2019-10-05T23:54:00,28.4330,-82.6670,10.0,2.94,97.21,5.09,'11111222,11111222,11111222' 
COMPS,ioos:station:USF.COMPS:ARP:1,2019-10-06T00:54:00,28.4330,-82.6670,10.0,3.63,98.06,5.87,'11111222,11111222,11111222' 
COMPS,ioos:station:USF.COMPS:ARP:1,2019-10-06T01:54:00,28.4330,-82.6670,10.0,1.9,94.09,3.13,'11111222,11111222,11111222' 
COMPS,ioos:station:USF.COMPS:ARP:1,2019-10-06T02:54:00,28.4330,-82.6670,10.0,2.34,91.69,3.91,'11111222,11111222,11111222' 
COMPS,ioos:station:USF.COMPS:ARP:1,2019-10-06T03:54:00,28.4330,-82.6670,10.0,2.25,88.94,3.52,'11111222,11111222,11111222' 
COMPS,ioos:station:USF.COMPS:ARP:1,2019-10-06T04:54:00,28.4330,-82.6670,10.0,2.11,90.58,3.23,'11111222,11111222,11111222' 
COMPS,ioos:station:USF.COMPS:ARP:1,2019-10-06T05:54:00,28.4330,-82.6670,10.0,2.15,86.29,3.42,'11111222,11111222,11111222' 
COMPS,ioos:station:USF.COMPS:ARP:1,2019-10-06T06:54:00,28.4330,-82.6670,10.0,2.63,83.7,3.82,'11111222,11111222,11111222' 
COMPS,ioos:station:USF.COMPS:ARP:1,2019-10-06T07:54:00,28.4330,-82.6670,10.0,2.15,79.33,3.33,'11111222,11111222,11111222' 
COMPS,ioos:station:USF.COMPS:ARP:1,2019-10-06T08:54:00,28.4330,-82.6670,10.0,1.53,71.25,2.25,'11111222,11111222,11111222' 
COMPS,ioos:station:USF.COMPS:ARP:1,2019-10-06T09:54:00,28.4330,-82.6670,10.0,2.14,70.73,2.84,'11111222,11111222,11111222' 
COMPS,ioos:station:USF.COMPS:ARP:1,2019-10-06T10:54:00,28.4330,-82.6670,10.0,2.26,71.23,2.93,'11111222,11111222,11111222' 
COMPS,ioos:station:USF.COMPS:ARP:1,2019-10-06T11:54:00,28.4330,-82.6670,10.0,2.27,75.84,3.42,'11111222,11111222,11111222' 
COMPS,ioos:station:USF.COMPS:ARP:1,2019-10-06T12:54:00,28.4330,-82.6670,10.0,3.05,80.31,4.7,'11111222,11111222,11111222' 
COMPS,ioos:station:USF.COMPS:ARP:1,2019-10-06T13:54:00,28.4330,-82.6670,10.0,4.81,91.8,8.82,'11111222,11111222,11111222' 
COMPS,ioos:station:USF.COMPS:ARP:1,2019-10-06T14:54:00,28.4330,-82.6670,10.0,4.0,90.57,6.27,'11111222,11111222,11111222' 
COMPS,ioos:station:USF.COMPS:ARP:1,2019-10-06T15:54:00,28.4330,-82.6670,10.0,3.1,91.43,5.29,'11111222,11111222,11111222' 
COMPS,ioos:station:USF.COMPS:ARP:1,2019-10-06T16:54:00,28.4330,-82.6670,10.0,4.39,94.46,7.54,'11111222,11111222,11111222' 
COMPS,ioos:station:USF.COMPS:ARP:1,2019-10-06T17:54:00,28.4330,-82.6670,10.0,4.36,83.83,7.44,'11111222,11111222,11111222' 
COMPS,ioos:station:USF.COMPS:ARP:1,2019-10-06T18:54:00,28.4330,-82.6670,10.0,5.16,79.19,7.35,'11111222,11111222,11111222' 
COMPS,ioos:station:USF.COMPS:ARP:1,2019-10-06T19:54:00,28.4330,-82.6670,10.0,3.17,77.5,5.87,'11111222,11111222,11111222' 
COMPS,ioos:station:USF.COMPS:ARP:1,2019-10-06T20:54:00,28.4330,-82.6670,10.0,5.36,86.16,7.64,'11111222,11111222,11111222' 
COMPS,ioos:station:USF.COMPS:ARP:1,2019-10-06T21:54:00,28.4330,-82.6670,10.0,4.57,81.68,7.35,'11111222,11111222,11111222' 
COMPS,ioos:station:USF.COMPS:ARP:1,2019-10-06T22:54:00,28.4330,-82.6670,10.0,3.84,78.57,7.05,'11111222,11111222,11111222' 
COMPS,ioos:station:USF.COMPS:ARP:1,2019-10-06T23:54:00,28.4330,-82.6670,10.0,2.75,81.11,4.01,'11111222,11111222,11111222' 
COMPS,ioos:station:USF.COMPS:ARP:1,2019-10-07T00:54:00,28.4330,-82.6670,10.0,3.09,71.45,4.6,'11111222,11111222,11111222' 
COMPS,ioos:station:USF.COMPS:ARP:1,2019-10-07T01:54:00,28.4330,-82.6670,10.0,3.65,67.07,4.8,'11111222,11111222,11111222' 
COMPS,ioos:station:USF.COMPS:ARP:1,2019-10-07T02:54:00,28.4330,-82.6670,10.0,3.5,74.35,5.29,'11111222,11111222,11111222' 
COMPS,ioos:station:USF.COMPS:ARP:1,2019-10-07T03:54:00,28.4330,-82.6670,10.0,4.14,87.48,7.15,'11111222,11111222,11111222' 
COMPS,ioos:station:USF.COMPS:ARP:1,2019-10-07T04:54:00,28.4330,-82.6670,10.0,2.89,84.37,4.7,'11111222,11111222,11111222' 
COMPS,ioos:station:USF.COMPS:ARP:1,2019-10-07T05:54:00,28.4330,-82.6670,10.0,3.36,80.8,4.5,'11111222,11111222,11111222' 
COMPS,ioos:station:USF.COMPS:ARP:1,2019-10-07T06:54:00,28.4330,-82.6670,10.0,3.69,76.85,5.09,'11111222,11111222,11111222' 
COMPS,ioos:station:USF.COMPS:ARP:1,2019-10-07T07:54:00,28.4330,-82.6670,10.0,3.41,79.18,5.09,'11111222,11111222,11111222' 
COMPS,ioos:station:USF.COMPS:ARP:1,2019-10-07T08:54:00,28.4330,-82.6670,10.0,3.15,77.13,4.8,'11111222,11111222,11111222' 
COMPS,ioos:station:USF.COMPS:ARP:1,2019-10-07T09:54:00,28.4330,-82.6670,10.0,4.42,79.4,6.95,'11111222,11111222,11111222' 
COMPS,ioos:station:USF.COMPS:ARP:1,2019-10-07T10:54:00,28.4330,-82.6670,10.0,2.93,66.58,3.82,'11111222,11111222,11111222' 
COMPS,ioos:station:USF.COMPS:ARP:1,2019-10-07T11:54:00,28.4330,-82.6670,10.0,3.46,81.99,5.58,'11111222,11111222,11111222' 
COMPS,ioos:station:USF.COMPS:ARP:1,2019-10-07T13:54:00,28.4330,-82.6670,10.0,3.54,80.6,4.9,'11111222,11111222,11111222' 
COMPS,ioos:station:USF.COMPS:ARP:1,2019-10-07T14:54:00,28.4330,-82.6670,10.0,2.81,73.48,4.5,'11111222,11111222,11111222' 
COMPS,ioos:station:USF.COMPS:ARP:1,2019-10-07T15:54:00,28.4330,-82.6670,10.0,1.55,103.21,2.25,'11111222,11111222,11111222' 
COMPS,ioos:station:USF.COMPS:ARP:1,2019-10-07T16:54:00,28.4330,-82.6670,10.0,0.61,79.83,1.17,'11111222,11111222,11111222' 
COMPS,ioos:station:USF.COMPS:ARP:1,2019-10-07T17:54:00,28.4330,-82.6670,10.0,1.78,310.94,3.33,'11111222,11111222,11111222' 
COMPS,ioos:station:USF.COMPS:ARP:1,2019-10-07T18:54:00,28.4330,-82.6670,10.0,1.31,341.08,3.03,'11111222,11111222,11111222' 
COMPS,ioos:station:USF.COMPS:ARP:1,2019-10-07T19:54:00,28.4330,-82.6670,10.0,0.86,31.73,2.45,'11111222,11111222,11111222' 
COMPS,ioos:station:USF.COMPS:ARP:1,2019-10-07T20:54:00,28.4330,-82.6670,10.0,1.16,61.27,2.15,'11111222,11111222,11111222' 
COMPS,ioos:station:USF.COMPS:ARP:1,2019-10-07T21:54:00,28.4330,-82.6670,10.0,2.12,71.34,3.91,'11111222,11111222,11111222' 
COMPS,ioos:station:USF.COMPS:ARP:1,2019-10-07T22:54:00,28.4330,-82.6670,10.0,2.9,70.19,4.5,'11111222,11111222,11111222' 
COMPS,ioos:station:USF.COMPS:ARP:1,2019-10-07T23:54:00,28.4330,-82.6670,10.0,2.31,86.8,3.62,'11111222,11111222,11111222' 
COMPS,ioos:station:USF.COMPS:ARP:1,2019-10-08T00:54:00,28.4330,-82.6670,10.0,4.03,76.05,5.39,'11111222,11111222,11111222' 
COMPS,ioos:station:USF.COMPS:ARP:1,2019-10-08T01:54:00,28.4330,-82.6670,10.0,3.88,67.79,5.97,'11111222,11111222,11111222' 
COMPS,ioos:station:USF.COMPS:ARP:1,2019-10-08T02:54:00,28.4330,-82.6670,10.0,5.03,72.22,6.56,'11111222,11111222,11111222' 
COMPS,ioos:station:USF.COMPS:ARP:1,2019-10-08T03:54:00,28.4330,-82.6670,10.0,3.6,76.23,4.5,'11111222,11111222,11111222' 
COMPS,ioos:station:USF.COMPS:ARP:1,2019-10-08T04:54:00,28.4330,-82.6670,10.0,2.59,70.75,3.72,'11111222,11111222,11111222' 
COMPS,ioos:station:USF.COMPS:ARP:1,2019-10-08T05:54:00,28.4330,-82.6670,10.0,2.71,76.79,3.72,'11111222,11111222,11111222' 
COMPS,ioos:station:USF.COMPS:ARP:1,2019-10-08T06:54:00,28.4330,-82.6670,10.0,1.31,105.07,2.05,'11111222,11111222,11111222' 
COMPS,ioos:station:USF.COMPS:ARP:1,2019-10-08T07:54:00,28.4330,-82.6670,10.0,0.23,69.25,0.58,'11111222,11111222,11111222' 
COMPS,ioos:station:USF.COMPS:ARP:1,2019-10-08T08:54:00,28.4330,-82.6670,10.0,1.81,71.14,2.45,'11111222,11111222,11111222' 
COMPS,ioos:station:USF.COMPS:ARP:1,2019-10-08T09:54:00,28.4330,-82.6670,10.0,1.24,67.98,1.95,'11111222,11111222,11111222' 
COMPS,ioos:station:USF.COMPS:ARP:1,2019-10-08T10:54:00,28.4330,-82.6670,10.0,1.95,71.12,2.45,'11111222,11111222,11111222' 
COMPS,ioos:station:USF.COMPS:ARP:1,2019-10-08T11:54:00,28.4330,-82.6670,10.0,1.53,65.82,2.25,'11111222,11111222,11111222' 
COMPS,ioos:station:USF.COMPS:ARP:1,2019-10-08T12:54:00,28.4330,-82.6670,10.0,2.04,71.27,3.33,'11111222,11111222,11111222' 
COMPS,ioos:station:USF.COMPS:ARP:1,2019-10-08T13:54:00,28.4330,-82.6670,10.0,3.65,68.65,5.09,'11111222,11111222,11111222' 
COMPS,ioos:station:USF.COMPS:ARP:1,2019-10-08T14:54:00,28.4330,-82.6670,10.0,2.95,81.89,4.7,'11111222,11111222,11111222' 
COMPS,ioos:station:USF.COMPS:ARP:1,2019-10-08T15:54:00,28.4330,-82.6670,10.0,3.43,73.4,5.58,'11111222,11111222,11111222' 
COMPS,ioos:station:USF.COMPS:ARP:1,2019-10-08T16:54:00,28.4330,-82.6670,10.0,3.5,63.75,4.99,'11111222,11111222,11111222' 
COMPS,ioos:station:USF.COMPS:ARP:1,2019-10-08T17:54:00,28.4330,-82.6670,10.0,1.53,27.23,4.01,'11111222,11111222,11111222' 
COMPS,ioos:station:USF.COMPS:ARP:1,2019-10-08T18:54:00,28.4330,-82.6670,10.0,1.49,320.46,3.91,'11111222,11111222,11111222' 
COMPS,ioos:station:USF.COMPS:ARP:1,2019-10-08T19:54:00,28.4330,-82.6670,10.0,1.15,356.82,3.23,'11111222,11111222,11111222' 
COMPS,ioos:station:USF.COMPS:ARP:1,2019-10-08T20:54:00,28.4330,-82.6670,10.0,3.32,96.78,5.39,'11111222,11111222,11111222' 
COMPS,ioos:station:USF.COMPS:ARP:1,2019-10-08T21:54:00,28.4330,-82.6670,10.0,0.73,129.85,1.66,'11111222,11111222,11111222' 
COMPS,ioos:station:USF.COMPS:ARP:1,2019-10-08T22:54:00,28.4330,-82.6670,10.0,1.58,56.57,3.52,'11111222,11111222,11111222' 
COMPS,ioos:station:USF.COMPS:ARP:1,2019-10-08T23:54:00,28.4330,-82.6670,10.0,0.58,151.42,1.27,'11111222,11111222,11111222' 
COMPS,ioos:station:USF.COMPS:ARP:1,2019-10-09T00:54:00,28.4330,-82.6670,10.0,0.36,123.82,0.68,'11111222,11111222,11111222' 
COMPS,ioos:station:USF.COMPS:ARP:1,2019-10-09T01:54:00,28.4330,-82.6670,10.0,0.76,65.98,1.37,'11111222,11111222,11111222' 
COMPS,ioos:station:USF.COMPS:ARP:1,2019-10-09T02:54:00,28.4330,-82.6670,10.0,2.33,66.43,3.03,'11111222,11111222,11111222' 